Location: Anaheim
(33.8350°N, 117.9140°W)
Time: 21:13:17
(UTC-07:00)

Amateur Radio Satellites - All Passes

Search period start: 27 July 2014 20:43
Search period end: 28 July 2014 20:43
Location: Anaheim, 33.8350°N, 117.9140°W

Satellite Date Start Highest point End Downlink Frequencies (MHz)
Time Altitude Azimuth
HO-68 27 Jul 20:45:05 20:52:03 57° 70° (ENE) 20:59:02 435.675 MHz FM
SO-50 27 Jul 20:50:26 20:52:47 14° 47° (NE) 20:55:09 436.795 FM
Oscar 11 27 Jul 20:58:08 21:00:57 17° 69° (ENE) 21:03:47 145.825 FM, Beacon 2401.500 USB
STRAND 1 27 Jul 21:06:27 21:08:56 14° 296° (WNW) 21:11:24 ?
MaSat-1 27 Jul 21:27:24 21:31:10 80° 111° (ESE) 21:35:40 437.345 MHz
UKube-1 27 Jul 21:45:53 21:50:09 55° 259° (W) 21:54:27 145.840 MHz, 145.915 MHz
RS-15 27 Jul 22:21:11 22:31:49 49° 53° (NE) 22:42:45 29.354 - 29.394 USB, Beacon 29.352 USB
Lituanica SAT-1 27 Jul 22:22:04 22:23:27 22° 320° (NW) 22:24:51 437.275 MHz beacon
SO-50 27 Jul 22:29:03 22:33:49 71° 243° (WSW) 22:38:37 436.795 FM
Oscar 11 27 Jul 22:33:00 22:36:51 32° 262° (W) 22:40:45 145.825 FM, Beacon 2401.500 USB
HO-68 27 Jul 22:34:40 22:40:02 23° 265° (W) 22:45:25 435.675 MHz FM
FUNcube-1 27 Jul 22:50:26 22:54:46 62° 259° (W) 22:59:01 145.950 - 145.970 MHz USB
UOSAT-12 27 Jul 22:57:56 23:01:06 18° 49° (NE) 23:04:13 437.025 FM, 437.400 FM
ISS 27 Jul 23:47:48 23:51:06 65° 318° (NW) 23:54:26 145.800 FM
Sapphire 27 Jul 23:53:51 23:57:40 20° 105° (ESE) 00:01:30 437.095 MHz 1200 baud AX-25 AFSK
AO-40 28 Jul 00:01:12 06:07:30 46° 161° (SSE) 07:46:20 Beacon 2401.320
PCSat 28 Jul 00:25:51 00:30:57 45° 110° (ESE) 00:36:06 145.825 MHz
RS-15 28 Jul 00:33:45 00:43:58 44° 252° (WSW) 00:54:36 29.354 - 29.394 USB, Beacon 29.352 USB
UOSAT-12 28 Jul 00:36:58 00:41:30 49° 245° (WSW) 00:45:58 437.025 FM, 437.400 FM
Oscar 10/S400 28 Jul 01:16:40 01:53:07 75° 189° (S) 11:32:49 145.825 - 145.975 CW/USB, Beacon 145.810 USB
Sapphire 28 Jul 01:35:33 01:40:42 45° 300° (WNW) 01:45:53 437.095 MHz 1200 baud AX-25 AFSK
JAS-1B 28 Jul 02:04:58 02:10:52 19° 87° (E) 02:16:12 435.800 - 435.900 CW/SSB
Oscar 19 28 Jul 02:05:06 02:10:06 48° 100° (E) 02:15:05 437.125 CW, 437.150 USB
PCSat 28 Jul 02:10:26 02:14:33 22° 306° (NW) 02:18:42 145.825 MHz
AO-Echo 28 Jul 02:30:23 02:35:05 38° 98° (E) 02:39:36 ?
Oscar 16 28 Jul 02:33:10 02:38:21 83° 284° (WNW) 02:43:31 437.025 USB, Beacon 2401.1428
OPAL 28 Jul 02:41:16 02:42:27 11° 61° (ENE) 02:43:39 ?
ITAMSAT 1 28 Jul 02:51:52 02:57:00 62° 101° (ESE) 03:02:05 435.822 SSB
TMSAT-1 28 Jul 03:04:27 03:08:33 23° 95° (E) 03:12:37 436.925 FM
AO-27 28 Jul 03:10:46 03:15:58 83° 284° (WNW) 03:21:07 436.795 MHz FM
Uribyol 2 28 Jul 03:11:34 03:16:44 78° 285° (WNW) 03:21:52 436.500 FM
Gurwin Techsat 1B 28 Jul 03:27:17 03:32:30 55° 101° (E) 03:37:40 435.225 FM
Oscar 19 28 Jul 03:45:43 03:49:01 17° 294° (WNW) 03:52:18 437.125 CW, 437.150 USB
JAS-1B 28 Jul 03:53:05 04:02:24 78° 287° (WNW) 04:10:15 435.800 - 435.900 CW/SSB
AO-Echo 28 Jul 04:09:56 04:13:30 20° 293° (WNW) 04:17:00 ?
OPAL 28 Jul 04:15:45 04:20:40 74° 256° (WSW) 04:25:38 ?
Uosat F 28 Jul 04:26:34 04:30:56 30° 97° (E) 04:35:17 435.120 FM
ITAMSAT 1 28 Jul 04:33:26 04:35:54 14° 296° (WNW) 04:38:22 435.822 SSB
AO-7 28 Jul 04:42:32 04:50:25 45° 101° (E) 04:58:12 29.400 - 29.500 MHz
TMSAT-1 28 Jul 04:43:41 04:48:30 36° 289° (WNW) 04:53:17 436.925 FM
PANSAT 28 Jul 04:46:00 04:48:52 20° 163° (SSE) 04:51:45 not established
Gurwin Techsat 1B 28 Jul 05:08:51 05:11:57 16° 295° (WNW) 05:15:03 435.225 FM
JAS-1B 28 Jul 05:46:12 05:51:06 16° 307° (NW) 05:55:43 435.800 - 435.900 CW/SSB
MaSat-1 28 Jul 05:52:05 05:53:29 11° 50° (NE) 05:54:52 437.345 MHz
Hamsat 28 Jul 05:52:18 05:54:58 16° 94° (E) 05:57:38 145.90 MHz
KITSAT 1 28 Jul 05:53:39 06:01:26 54° 111° (ESE) 06:09:15 435.175 FM
Lituanica SAT-1 28 Jul 06:02:35 06:03:37 16° 228° (SW) 06:04:38 437.275 MHz beacon
Uosat F 28 Jul 06:05:29 06:09:34 26° 291° (WNW) 06:13:37 435.120 FM
ISS 28 Jul 06:19:58 06:22:47 24° 35° (NE) 06:25:35 145.800 FM
PANSAT 28 Jul 06:25:06 06:28:39 35° 175° (S) 06:32:12 not established
Saudisat 1A 28 Jul 06:29:58 06:31:48 12° 108° (ESE) 06:33:38 436.775 MHz
AO-7 28 Jul 06:35:36 06:42:55 36° 297° (WNW) 06:50:13 29.400 - 29.500 MHz
STRAND 1 28 Jul 06:37:15 06:42:18 58° 74° (ENE) 06:47:21 ?
JAS-2 28 Jul 06:46:04 06:51:40 48° 98° (E) 06:56:46 435.800 - 435.900 CW/SSB, 435.910 FM
MaSat-1 28 Jul 07:26:19 07:31:38 86° 68° (ENE) 07:36:33 437.345 MHz
Hamsat 28 Jul 07:27:05 07:30:59 34° 287° (WNW) 07:34:54 145.90 MHz
KITSAT 1 28 Jul 07:50:05 07:57:06 32° 308° (NW) 08:04:09 435.175 FM
ISS 28 Jul 07:56:34 07:59:28 27° 230° (SW) 08:02:21 145.800 FM
PANSAT 28 Jul 08:05:03 08:08:31 32° 188° (S) 08:11:59 not established
Saudisat 1A 28 Jul 08:06:36 08:10:53 51° 302° (WNW) 08:15:13 436.775 MHz
STRAND 1 28 Jul 08:19:25 08:21:47 13° 267° (W) 08:24:09 ?
HO-68 28 Jul 08:21:15 08:23:01 11° 91° (E) 08:24:47 435.675 MHz FM
SO-67 28 Jul 08:28:15 08:31:25 34° 286° (WNW) 08:34:34 435.3500 MHz FM
JAS-2 28 Jul 08:32:21 08:36:13 19° 297° (WNW) 08:39:53 435.800 - 435.900 CW/SSB, 435.910 FM
PCSat 28 Jul 09:18:38 09:22:13 18° 51° (NE) 09:25:47 145.825 MHz
UKube-1 28 Jul 09:38:19 09:42:14 32° 98° (E) 09:46:07 145.840 MHz, 145.915 MHz
PANSAT 28 Jul 09:45:54 09:48:14 16° 200° (SSW) 09:50:34 not established
HO-68 28 Jul 10:04:19 10:11:30 85° 105° (ESE) 10:18:38 435.675 MHz FM
Oscar 11 28 Jul 10:23:59 10:28:16 58° 101° (E) 10:32:32 145.825 FM, Beacon 2401.500 USB
Sapphire 28 Jul 10:27:07 10:32:31 63° 63° (ENE) 10:37:51 437.095 MHz 1200 baud AX-25 AFSK
FUNcube-1 28 Jul 10:43:42 10:47:27 31° 98° (E) 10:51:13 145.950 - 145.970 MHz USB
PCSat 28 Jul 11:00:41 11:06:00 59° 248° (WSW) 11:11:18 145.825 MHz
UKube-1 28 Jul 11:15:14 11:18:10 18° 292° (WNW) 11:21:05 145.840 MHz, 145.915 MHz
HO-68 28 Jul 11:54:20 11:58:16 16° 302° (WNW) 12:02:13 435.675 MHz FM
Oscar 11 28 Jul 12:03:13 12:03:54 10° 294° (WNW) 12:04:36 145.825 FM, Beacon 2401.500 USB
Sapphire 28 Jul 12:12:42 12:15:19 14° 257° (WSW) 12:17:55 437.095 MHz 1200 baud AX-25 AFSK
FUNcube-1 28 Jul 12:20:55 12:23:35 17° 291° (WNW) 12:26:17 145.950 - 145.970 MHz USB
RS-15 28 Jul 12:40:02 12:50:23 44° 108° (ESE) 13:00:26 29.354 - 29.394 USB, Beacon 29.352 USB
SO-50 28 Jul 12:40:19 12:44:46 84° 299° (WNW) 12:49:18 436.795 FM
JAS-1B 28 Jul 12:45:58 12:50:15 14° 52° (NE) 12:54:39 435.800 - 435.900 CW/SSB
AO-27 28 Jul 12:50:28 12:51:23 10° 62° (ENE) 12:52:19 436.795 MHz FM
Uribyol 2 28 Jul 12:50:31 12:51:55 11° 63° (ENE) 12:53:19 436.500 FM
UOSAT-12 28 Jul 13:08:29 13:09:08 10° 106° (ESE) 13:09:46 437.025 FM, 437.400 FM
Oscar 19 28 Jul 13:18:15 13:23:06 47° 73° (ENE) 13:27:59 437.125 CW, 437.150 USB
AO-Echo 28 Jul 13:39:03 13:43:49 35° 71° (ENE) 13:48:37 ?
Oscar 16 28 Jul 13:46:14 13:51:21 85° 257° (WSW) 13:56:30 437.025 USB, Beacon 2401.1428
KITSAT 1 28 Jul 13:53:00 13:57:12 15° 40° (NE) 14:01:23 435.175 FM
ITAMSAT 1 28 Jul 14:05:56 14:11:05 64° 74° (ENE) 14:16:15 435.822 SSB
TMSAT-1 28 Jul 14:21:35 14:25:49 25° 68° (ENE) 14:30:03 436.925 FM
AO-27 28 Jul 14:24:56 14:30:09 81° 257° (WSW) 14:35:24 436.795 MHz FM
Uribyol 2 28 Jul 14:25:29 14:30:41 77° 257° (WSW) 14:35:54 436.500 FM
JAS-1B 28 Jul 14:30:11 14:38:42 67° 71° (ENE) 14:48:21 435.800 - 435.900 CW/SSB
UOSAT-12 28 Jul 14:44:06 14:48:38 65° 300° (WNW) 14:53:17 437.025 FM, 437.400 FM
Gurwin Techsat 1B 28 Jul 14:44:28 14:49:41 59° 74° (ENE) 14:54:54 435.225 FM
RS-15 28 Jul 14:51:57 15:02:32 47° 307° (NW) 15:12:58 29.354 - 29.394 USB, Beacon 29.352 USB
Oscar 19 28 Jul 14:59:30 15:02:38 16° 266° (W) 15:05:47 437.125 CW, 437.150 USB
AO-Echo 28 Jul 15:18:21 15:22:33 24° 265° (W) 15:26:49 ?
Uosat F 28 Jul 15:36:15 15:40:30 28° 69° (ENE) 15:44:46 435.120 FM
AO-7 28 Jul 15:37:11 15:44:56 44° 65° (ENE) 15:52:41 29.400 - 29.500 MHz
KITSAT 1 28 Jul 15:46:06 15:54:10 68° 61° (ENE) 16:02:09 435.175 FM
ITAMSAT 1 28 Jul 15:48:54 15:50:56 12° 268° (W) 15:52:58 435.822 SSB
TMSAT-1 28 Jul 16:00:45 16:05:31 34° 262° (W) 16:10:18 436.925 FM
JAS-1B 28 Jul 16:22:57 16:29:47 26° 270° (W) 16:37:21 435.800 - 435.900 CW/SSB
Gurwin Techsat 1B 28 Jul 16:27:23 16:29:58 14° 268° (W) 16:32:32 435.225 FM
OPAL 28 Jul 16:29:28 16:34:15 40° 101° (E) 16:39:04 ?
Saudisat 1A 28 Jul 16:37:02 16:41:10 39° 57° (ENE) 16:45:17 436.775 MHz
JAS-2 28 Jul 16:54:01 16:59:04 19° 63° (ENE) 17:03:56 435.800 - 435.900 CW/SSB, 435.910 FM
RS-15 28 Jul 17:13:38 17:18:38 14° 337° (NNW) 17:23:40 29.354 - 29.394 USB, Beacon 29.352 USB
Uosat F 28 Jul 17:14:56 17:19:11 27° 263° (W) 17:23:27 435.120 FM
AO-7 28 Jul 17:30:11 17:37:40 37° 261° (W) 17:45:13 29.400 - 29.500 MHz
KITSAT 1 28 Jul 17:43:05 17:48:47 22° 257° (WSW) 17:54:28 435.175 FM
OPAL 28 Jul 18:09:08 18:12:49 21° 295° (WNW) 18:16:32 ?
Hamsat 28 Jul 18:16:07 18:20:17 81° 258° (WSW) 18:24:29 145.90 MHz
Saudisat 1A 28 Jul 18:17:39 18:20:24 16° 251° (WSW) 18:23:09 436.775 MHz
JAS-2 28 Jul 18:35:27 18:43:19 80° 257° (WSW) 18:50:50 435.800 - 435.900 CW/SSB, 435.910 FM
STRAND 1 28 Jul 18:52:26 18:56:43 27° 97° (E) 19:00:57 ?
SO-67 28 Jul 18:57:27 19:00:38 36° 75° (ENE) 19:03:50 435.3500 MHz FM
RS-15 28 Jul 19:34:56 19:38:27 12° 17° (NNE) 19:41:58 29.354 - 29.394 USB, Beacon 29.352 USB
JAS-2 28 Jul 20:26:19 20:28:59 12° 270° (W) 20:31:37 435.800 - 435.900 CW/SSB, 435.910 FM
HO-68 28 Jul 20:28:37 20:35:16 43° 68° (ENE) 20:41:56 435.675 MHz FM
UKube-1 28 Jul 20:30:59 20:34:00 19° 68° (ENE) 20:37:01 145.840 MHz, 145.915 MHz
STRAND 1 28 Jul 20:31:27 20:35:48 29° 291° (WNW) 20:40:08 ?
